AST,Max TemperatureF,Mean TemperatureF,Min TemperatureF,Max Dew PointF,MeanDew PointF,Min DewpointF,Max Humidity, Mean Humidity, Min Humidity, Max Sea Level PressureIn, Mean Sea Level PressureIn, Min Sea Level PressureIn, Max VisibilityMiles, Mean VisibilityMiles, Min VisibilityMiles, Max Wind SpeedMPH, Mean Wind SpeedMPH, Max Gust SpeedMPH,PrecipitationIn, CloudCover, Events, WindDirDegrees
2014-1-1,74,70,66,61,55,46,83,61,33,30.16,30.10,30.04,10,8,6,15,10,,0.00,2,,127
2014-1-2,72,68,64,63,59,55,83,72,46,30.22,30.14,30.09,9,7,6,10,7,,0.00,3,Rain,55
2014-1-3,70,66,63,59,52,48,83,59,37,30.29,30.21,30.15,10,7,6,13,9,,0.00,2,,341
2014-1-4,73,66,60,55,51,46,68,57,30,30.25,30.17,30.12,10,9,7,15,7,,0.00,,,333
2014-1-5,71,65,59,61,58,54,82,73,56,30.14,30.06,29.98,9,6,4,12,5,,0.02,4,Rain,37
2014-1-6,71,66,60,64,59,39,94,75,37,30.04,29.97,29.92,9,6,4,20,11,28,0.03,6,Rain,58
2014-1-7,64,60,55,54,48,37,82,66,39,30.15,30.05,29.98,9,5,4,20,13,31,0.00,2,Rain,306
2014-1-8,66,60,53,52,47,37,72,62,39,30.22,30.15,30.09,7,5,4,13,8,,0.00,,,301
2014-1-9,68,62,56,50,48,46,72,59,38,30.27,30.18,30.12,9,5,4,12,7,,0.00,2,,318
2014-1-10,70,64,57,61,54,48,83,69,48,30.21,30.15,30.09,9,6,3,12,5,,0.00,4,,71
2014-1-11,66,63,60,63,58,54,88,81,62,30.18,30.13,30.06,9,6,4,17,6,,0.59,7,Rain,154
2014-1-12,64,60,57,57,48,43,88,62,40,30.32,30.24,30.18,9,7,6,13,9,,0.00,3,,310
2014-1-13,66,60,54,50,47,43,72,61,41,30.32,30.25,30.21,9,6,4,12,7,,0.00,1,,292
2014-1-14,67,62,56,52,50,48,82,66,44,30.29,30.20,30.15,7,5,3,10,6,,0.00,1,,302
2014-1-15,70,62,54,54,50,45,88,63,30,30.25,30.18,30.15,9,5,2,7,4,,0.00,1,,269
2014-1-16,73,64,56,55,52,48,77,64,37,30.28,30.19,30.15,9,6,5,14,5,,0.00,,,307
2014-1-17,70,64,58,61,57,55,94,76,49,30.23,30.13,30.04,9,6,2,10,7,,0.00,1,,14
2014-1-18,69,64,59,61,59,50,94,82,68,30.13,30.03,29.98,6,5,3,14,6,,0.02,6,Rain,164
2014-1-19,65,60,55,50,46,41,77,60,35,30.22,30.15,30.09,10,7,5,14,9,,0.00,1,,289
2014-1-20,68,62,55,57,52,50,82,69,43,30.24,30.17,30.15,7,5,2,9,5,,0.00,1,,301
2014-1-21,69,64,58,55,54,52,82,69,46,30.27,30.20,30.15,7,6,4,9,7,,0.00,1,,329
2014-1-22,72,64,57,55,51,45,88,64,29,30.25,30.19,30.15,9,4,2,8,4,,0.00,1,,282
2014-1-23,74,64,55,56,52,46,82,64,30,30.22,30.14,30.09,7,5,2,12,4,,0.00,,,159
2014-1-24,72,64,57,61,56,52,94,73,41,30.12,30.07,30.04,9,4,2,12,6,,0.00,,,148
2014-1-25,72,66,60,61,57,54,88,72,43,30.17,30.10,30.04,7,3,2,9,6,,0.00,,,341
2014-1-26,70,65,60,61,58,55,88,78,56,30.20,30.12,30.06,4,3,2,12,5,,0.00,1,,4
2014-1-27,72,66,61,64,62,61,100,87,65,30.17,30.08,30.04,4,2,0,9,4,,0.00,2,Fog,80
2014-1-28,74,68,63,66,63,61,100,83,61,30.14,30.05,30.01,7,3,1,13,7,,0.00,2,,99
2014-1-29,78,70,63,64,59,50,94,68,27,30.12,30.05,30.01,10,6,5,12,4,,0.00,,,123
2014-1-30,81,74,66,64,59,52,88,63,33,30.11,30.04,30.01,7,5,2,10,4,,0.00,6,Rain,317
2014-1-31,76,70,63,63,56,47,88,66,28,30.15,30.06,30.01,9,4,3,16,8,,0.00,3,Rain,319